Location: Lac Lasalle
(46.0398°N, 74.1576°W)
Time: 14:55:18
(UTC-05:00)

SEEDS - Pass Details

Date: 18 December 2019
Orbit: 586 x 603 km, 97.5° (Epoch: 28 January)

Event Time Altitude Azimuth Distance (km) Brightness Sun altitude
Rises 17:27:58 0° 187° (S) 2,804 ? -12.4°
Reaches altitude 10° 17:30:15 10° 196° (SSW) 1,911 ? -12.8°
Maximum altitude 17:34:05 36° 263° (W) 952 ? -13.4°
Drops below altitude 10° 17:37:58 10° 331° (NNW) 1,935 ? -14.1°
Sets 17:40:17 0° 340° (NNW) 2,845 ? -14.5°
